VTSH  Songkhla Airport

Add Bookmark

Thailand

Status IATA
Operational SGZ
Latitude Longitude
7° 11' 11" N 100° 36' 28" E
7.186560 100.608002
Local (DST + 7) UTC (GMT + 7)
Oct 31, 2014 01:11 Oct 30, 2014 18:11
Sunrise-Sunset Local UTC
Begin Civil Twilight 05:42 22:42
Sunrise 06:03 23:03
Sunset 05:58 10:58
End Civil Twilight 06:19 11:19

Current Weather

METAR Observed VFR
VTSH 301000Z 06004KT 9999 FEW020CB BKN300 30/24 Q1007 A2974 CB W Thu, Oct 30, 2014 @ 10:00 UTC
(8 Hours, 11 Minutes ago)
Visual Flight Rules
Wind Visibility Clouds Conditions
060° at 4 knots (7 kph) 10 km or more
  • Few at 2,000' AGL
  • Broken at 30,000' AGL
  • No significant weather
Temperatures Readings Precipitation
Current Temp 30°C (86°F)
Dewpoint 24°C (75°F)
Heat Index 35°C (95°F)
Humidity 70%
Altimeter 29.73"Hg
Sea Level Pressure 1007mb
Field Elevation 16.4'
None Recorded

Additional weather within a 92.6km radius of VTSH

Map ICAO Location
VTSS 36.9km S (220°)

24 Hour Weather History

Loading
-

24 Hour Weather Graphs

Loading
-

CheckWX.com is intended as a tool to help pilots better visualize weather data. It is not intended as a substitute for an official weather briefing obtained from a Flight Service Station. CheckWX.com does not meet the FAA requirements for an official pre-flight weather briefing. Therefore, it's important that pilots still call and obtain an official FSS pre-flight weather briefing.